SCP
2 3 3 3 2 2 2 2 2 2 2 2 2 2 2 2 1 1 1 1 1 1 1 0 0 1 1 1 1 0 0 0 0 0 0 0 0 0 0 0 0 0 0
3 3 3 3 2 2 2 2 2 2 2 2 2 2 2 2 2 1 1 1 1 1 1 1 1 1 1 1 1 1 1 0 0 0 0 0 0 1 1 0 0 0 0
4 4 4 4 3 2 1 2 2 2 2 2 2 2 2 2 2 2 1 1 1 1 1 1 1 1 1 1 1 1 1 1 1 1 1 0 0 0 1 1 0 0 0
4 4 3 4 3 2 1 1 2 2 2 2 2 2 2 2 2 2 2 1 1 1 1 1 1 1 1 1 1 1 1 1 1 1 0 0 0 0 0 0 0 0 0
5 4 4 4 4 2 1 1 2 2 2 2 2 1 2 2 2 2 2 1 1 1 1 1 1 1 1 1 1 1 1 1 1 1 0 0 0 0 0 0 0 0 0
5 4 4 4 4 3 2 1 2 2 2 2 2 1 1 1 2 2 2 2 1 1 1 1 1 1 1 1 1 1 1 1 1 0 0 0 0 0 0 0 0 0 0
5 5 4 4 4 3 2 2 2 2 2 2 1 1 1 1 1 2 2 2 1 1 1 1 1 1 1 1 1 1 1 1 0 0 0 0 0 0 0 0 0 0 0
6 5 5 4 4 3 2 2 2 2 2 1 1 1 1 1 1 2 2 2 1 1 1 1 1 1 2 2 1 1 1 1 0 0 0 0 0 0 0 0 0 0 0
6 5 5 4 3 3 3 2 2 2 2 1 1 1 1 1 1 1 2 2 1 1 1 1 1 1 2 2 2 1 1 1 0 0 0 0 0 0 1 1 1 1 0
6 6 5 4 3 3 3 3 2 2 1 1 1 1 1 1 1 1 1 1 1 1 1 1 1 1 1 2 1 1 1 1 0 0 0 0 0 0 1 1 1 1 1
6 5 4 3 3 3 3 3 2 1 1 1 1 1 1 1 1 1 1 1 1 1 1 1 1 1 1 1 1 1 1 1 0 0 0 0 0 0 1 1 0 0 0
5 4 4 3 3 3 3 2 2 1 1 1 1 1 1 1 1 1 1 1 1 1 1 1 1 1 1 1 1 1 1 1 0 0 0 0 0 0 1 1 0 0 0
4 4 4 3 3 3 3 2 1 1 1 1 0 0 0 1 1 1 1 1 1 1 1 1 1 1 1 1 1 1 1 1 0 0 0 0 0 0 1 1 1 0 0
3 4 4 4 3 3 2 2 1 1 1 0 0 0 0 1 1 1 0 1 1 1 1 1 1 1 1 1 1 1 1 0 0 0 0 0 0 0 1 1 1 1 0
3 3 4 3 3 2 2 2 1 1 1 0 0 0 0 1 1 0 0 0 1 1 1 1 1 1 1 1 1 1 1 0 0 0 0 0 0 0 0 1 1 1 1
3 3 3 3 3 2 2 1 1 1 0 0 0 0 0 0 1 0 0 0 1 1 1 2 1 1 1 1 1 1 1 0 0 0 0 0 0 0 0 0 1 1 1
3 3 3 3 2 2 1 1 1 1 0 0 0 0 0 0 0 1 0 0 1 1 2 2 2 1 1 1 1 1 1 0 0 0 0 0 0 0 0 0 1 1 1
2 3 3 2 2 2 1 1 1 1 0 0 0 0 0 0 0 1 1 1 1 1 1 2 2 1 1 1 1 1 1 0 0 0 0 0 0 0 0 0 0 0 0
2 2 2 2 2 2 1 1 1 1 0 0 0 0 0 0 0 1 1 1 1 1 1 2 2 2 1 1 1 1 1 1 0 0 0 0 0 0 0 0 0 0 0
1 1 1 2 2 2 1 1 1 0 0 0 0 0 0 0 0 0 1 1 1 1 1 1 2 2 1 1 1 1 1 1 0 0 0 0 0 0 0 0 0 0 0
0 0 0 1 2 1 1 0 0 0 0 0 0 0 0 0 0 0 0 1 0 0 0 1 1 2 1 1 1 1 1 1 0 0 0 0 0 0 0 0 0 0 0
0 0 0 1 1 1 0 0 0 0 0 0 0 0 0 0 0 0 0 0 0 0 0 1 1 1 1 1 0 0 0 0 0 0 0 0 0 0 0 0 0 0 0
0 0 0 1 1 1 0 0 0 0 0 0 0 0 0 0 0 0 0 1 0 0 0 0 1 1 1 1 0 0 0 0 0 0 0 0 0 0 0 0 0 0 0
0 0 0 1 1 0 0 0 0 0 0 0 0 0 0 0 0 0 0 1 0 0 0 0 0 1 1 1 0 0 0 0 0 0 0 0 0 0 0 0 0 0 0
0 0 0 0 0 0 0 0 0 0 0 0 0 0 0 0 0 0 0 0 0 0 0 0 0 0 1 1 0 0 0 0 0 0 0 0 0 0 0 0 0 0 0
0 0 0 0 0 0 0 0 0 0 0 0 0 0 0 0 0 0 0 0 0 0 0 0 0 0 0 1 0 0 0 0 0 0 0 0 0 0 0 0 0 0 0
Wind_Speed
2 3 7 8 8 8 8 8 8 8 8 9 9 9 9 9 8 8 8 8 7 7 7 7 7 7 8 8 8 8 8 7 7 7 7 6 6 6 7 6 6 4 6
4 4 7 8 8 9 9 8 8 8 8 8 9 8 8 8 8 8 7 7 7 7 6 6 6 6 7 7 7 7 7 7 6 6 6 5 4 5 6 5 5 3 6
4 4 6 7 8 9 8 8 8 8 8 8 8 8 8 8 8 7 7 6 6 6 6 6 6 6 6 6 6 6 6 6 6 5 5 3 2 4 5 5 4 5 5
4 3 4 7 7 8 8 8 8 8 8 8 8 8 8 7 7 7 6 6 6 6 6 6 6 6 6 5 5 6 6 6 6 5 3 2 1 3 4 4 4 4 4
3 3 4 7 7 8 8 8 8 8 8 8 7 8 8 7 7 7 6 6 5 5 6 6 6 5 5 5 5 6 6 7 6 5 3 2 2 2 3 3 3 4 4
3 3 4 6 6 7 7 8 7 7 8 8 8 7 7 7 7 6 6 6 5 5 5 6 5 5 5 5 5 6 6 6 5 3 2 2 1 2 3 3 4 4 4
3 2 4 6 6 7 7 7 7 7 7 8 8 7 7 7 6 6 6 5 5 5 5 5 5 5 5 5 5 6 5 5 4 2 2 1 1 2 3 3 3 3 3
4 3 3 5 5 6 6 6 7 7 6 6 7 7 7 7 6 6 5 5 5 5 5 5 4 5 5 5 5 6 6 5 3 2 1 1 2 2 2 3 3 3 3
3 3 2 3 3 4 5 5 6 6 5 5 5 6 6 6 6 6 5 5 5 5 5 4 4 4 5 5 5 5 5 6 3 1 1 1 2 1 2 2 2 3 3
3 3 3 3 3 2 3 5 6 5 5 5 5 5 6 5 5 5 4 4 4 4 4 4 4 4 5 5 5 5 6 5 2 2 1 1 2 2 3 3 3 3 3
3 2 2 3 3 2 2 3 5 5 5 5 4 5 5 3 3 3 3 4 4 4 4 4 4 4 5 5 5 5 4 2 2 1 1 2 2 2 3 3 3 3 3
4 3 2 3 3 3 2 2 2 2 2 2 2 3 2 2 2 3 4 5 4 4 4 5 5 5 4 2 3 4 2 2 1 1 1 3 2 2 2 3 3 3 2
4 3 3 3 3 3 2 2 1 1 1 2 3 3 3 2 2 2 2 3 3 3 2 3 3 2 2 2 2 2 2 2 1 1 2 4 3 3 3 3 3 3 3
3 3 3 3 3 3 3 2 2 1 1 1 2 3 2 2 2 2 1 2 2 1 2 2 2 2 2 2 2 2 2 1 1 1 2 5 4 4 4 4 4 3 3
3 3 3 3 3 3 3 2 2 2 1 1 1 2 3 2 2 2 1 1 1 1 1 2 2 2 2 2 2 2 2 2 2 2 2 5 6 5 6 5 4 4 3
3 3 3 3 3 3 3 2 2 2 2 1 1 2 2 2 2 2 2 2 1 1 1 2 2 2 1 2 2 2 2 2 2 2 2 3 6 7 6 6 6 5 4
3 3 4 3 3 3 3 3 2 2 2 2 1 2 2 2 3 3 2 2 1 1 2 2 2 2 2 2 2 2 2 2 2 2 2 2 2 5 7 6 6 6 5
2 2 3 3 4 3 3 3 2 2 3 2 2 1 2 2 2 3 2 2 1 1 1 2 2 2 2 2 1 1 1 1 2 2 2 2 2 2 4 7 7 7 6
3 2 2 2 3 3 2 3 3 2 3 2 2 2 2 2 2 3 2 2 2 2 2 2 2 2 1 1 1 1 2 1 1 2 2 3 2 2 2 4 7 7 7
3 3 2 2 3 3 3 3 3 3 2 2 2 2 2 2 2 2 2 2 2 2 2 2 2 2 1 1 1 2 1 1 1 2 2 2 2 2 2 3 2 3 6
2 2 2 2 3 3 2 2 2 1 1 2 1 2 2 2 2 2 2 2 2 2 2 2 2 2 2 1 1 2 2 1 2 1 1 1 2 2 2 2 1 1 2
3 2 2 3 3 3 2 2 1 2 1 1 1 1 2 2 2 2 2 2 2 2 2 2 2 2 1 1 1 1 1 2 1 1 1 1 1 1 2 2 2 1 1
4 3 2 4 3 3 3 3 3 2 2 1 1 1 1 2 2 2 2 2 2 2 2 2 2 3 2 0 1 2 2 1 1 1 1 1 1 1 1 1 1 1 1
4 3 2 3 4 4 4 4 4 2 2 1 1 1 1 1 2 2 2 2 2 2 2 2 2 2 3 2 0 1 1 2 2 1 2 1 1 1 1 1 1 1 1
3 3 2 3 3 4 3 4 4 2 1 1 2 2 1 1 1 1 2 2 2 2 2 2 2 2 2 2 2 1 1 1 1 2 2 2 2 1 2 2 2 1 1
2 2 2 3 3 3 3 3 4 4 3 3 2 1 1 0 0 0 1 1 2 2 2 2 3 3 2 2 2 2 2 2 2 2 2 2 2 2 2 2 2 2 1
Wind_Direction
195 197 178 162 154 150 143 136 128 124 119 116 116 116 117 116 112 110 107 103 101 100 101 97 93 90 90 88 86 85 83 79 79 75 68 67 74 82 83 80 74 71 83
166 181 171 160 156 151 149 139 128 125 122 122 120 118 117 118 114 111 106 103 101 100 101 100 97 91 90 88 86 83 80 78 76 73 69 60 54 77 87 88 83 90 87
148 165 162 154 153 151 147 140 135 132 127 126 124 121 120 120 116 113 109 106 103 100 98 98 95 93 90 87 85 81 80 80 75 72 71 58 44 76 89 93 91 88 85
145 152 156 151 146 149 145 141 143 140 133 127 126 123 119 118 115 113 108 105 102 100 96 95 92 90 89 83 83 79 78 79 73 72 65 52 30 68 83 92 91 88 84
135 137 154 148 145 147 144 144 146 145 139 134 129 123 118 115 115 114 108 101 96 93 90 89 89 86 85 83 86 81 77 76 70 66 59 46 27 48 65 79 84 89 83
135 129 141 136 143 145 147 144 143 144 145 140 133 128 123 117 114 116 110 103 96 94 93 88 87 86 82 81 83 82 78 74 69 58 49 31 10 41 56 74 77 81 79
143 138 148 133 136 140 142 142 134 134 144 144 139 136 130 124 117 112 110 108 103 97 96 92 86 85 85 84 83 83 77 73 72 59 39 9 349 30 53 70 64 77 82
145 141 143 134 127 132 137 140 137 128 129 142 143 140 132 124 118 113 112 110 107 104 100 98 92 87 88 86 82 78 77 78 74 56 22 341 334 31 50 67 64 59 64
136 135 128 125 123 121 120 126 128 126 122 121 137 137 127 119 116 114 112 110 105 103 97 94 91 87 81 84 80 77 78 76 76 54 15 323 335 28 58 70 74 64 58
130 129 121 108 103 103 113 120 114 113 112 110 108 111 112 107 106 105 100 99 100 96 91 85 81 81 74 71 73 74 73 70 58 41 355 329 16 45 63 67 72 66 58
139 138 136 122 107 98 105 110 107 111 113 105 99 105 95 83 80 84 87 86 92 89 83 79 74 76 71 61 62 67 69 62 50 24 334 3 36 52 63 60 66 64 55
180 175 163 145 131 117 111 92 90 92 103 93 95 96 100 95 83 76 67 69 77 75 70 73 71 68 66 52 52 60 60 58 55 10 354 22 38 45 54 62 59 55 47
190 184 172 158 138 128 117 113 99 92 91 87 100 96 97 92 78 65 59 47 52 64 57 56 58 48 55 57 54 50 59 65 49 7 359 27 38 41 62 70 62 57 51
184 184 162 162 144 133 125 125 122 109 96 90 98 106 112 112 95 83 68 60 55 56 66 58 66 56 55 56 67 67 61 59 44 19 12 29 39 46 63 73 66 55 48
188 184 162 157 155 139 126 131 122 114 110 109 110 107 115 124 126 110 88 65 59 63 77 76 72 69 62 57 58 69 62 54 48 38 18 32 38 46 56 64 63 52 43
195 190 165 162 162 146 135 133 130 119 107 89 92 107 114 123 133 126 112 90 59 70 93 96 93 87 67 66 59 56 60 60 57 52 40 27 37 43 49 52 50 45 39
194 190 171 161 142 148 137 136 126 119 108 99 91 92 95 112 135 134 123 103 73 68 96 92 82 79 70 62 62 52 53 52 59 56 50 43 30 34 42 48 47 44 39
162 172 181 151 142 139 133 128 122 113 106 98 93 90 91 99 127 129 127 118 106 87 89 101 91 77 61 48 42 36 41 49 55 60 62 54 47 39 34 44 43 39 36
145 147 154 113 137 131 121 111 107 106 106 106 96 85 82 89 106 127 130 127 118 103 91 98 84 94 85 43 40 48 42 51 52 70 70 63 57 52 40 37 38 35 32
133 136 133 122 123 118 110 100 90 87 92 96 97 94 84 81 92 118 128 126 120 108 94 94 98 78 93 76 63 48 40 46 62 67 70 63 58 56 48 41 29 20 28
134 133 143 138 138 134 128 123 117 108 96 88 98 101 96 95 99 104 119 127 127 126 129 122 114 91 59 41 71 33 17 39 66 64 55 60 49 43 42 40 33 24 4
168 164 172 161 155 151 144 129 120 116 114 105 92 87 97 103 109 111 120 135 136 130 120 113 120 119 76 49 105 103 11 344 355 29 44 72 50 28 26 24 18 15 12
178 185 192 165 159 145 131 108 91 80 76 79 82 82 84 100 111 117 124 129 133 134 143 143 143 139 143 77 69 129 140 220 299 316 350 45 34 23 339 329 347 346 0
189 177 169 165 159 151 144 143 144 152 160 176 147 136 101 102 115 134 141 143 142 139 151 160 148 156 146 155 129 56 131 155 167 297 308 319 351 352 316 307 294 294 315
170 165 167 161 160 156 155 155 155 143 122 107 107 123 106 80 99 129 147 149 152 153 159 158 152 156 160 166 171 155 114 81 122 169 263 301 319 280 267 274 280 272 279
134 149 158 163 163 158 159 160 161 152 145 134 131 150 137 90 70 115 133 147 161 165 174 176 170 168 176 172 174 180 176 167 172 169 223 254 275 274 268 255 252 261 251